Theta_e
352 347 343 341 341 339 336 334 334 333 332 330 324 318 315 315 315 315 315 316 316 314 312 311 311 311 311 311 311 311 311 311 311 311 311 311 310 310 310 311 314 316 321 328 333 333 331 330 329 330 332 334 336 335 335 335 335 336 335 336 336 336 336 335 334 333 331 327 325 326 328 329 330 331 331 332 332 333 333 334 334 335 334 334 334
350 346 343 341 340 338 334 333 333 333 332 330 324 318 315 315 315 315 315 316 316 314 312 311 311 311 311 311 311 311 312 312 312 311 311 311 310 310 310 310 313 316 319 325 330 331 330 328 329 331 333 334 334 333 333 333 334 334 334 334 333 333 333 333 332 330 328 324 319 319 323 327 329 329 330 331 332 333 333 334 334 334 334 334 334
348 345 342 340 339 336 334 333 333 334 332 330 326 319 315 315 315 315 315 316 315 313 312 312 311 311 311 311 311 312 313 313 313 312 311 311 311 310 310 310 311 315 318 321 325 327 327 327 329 332 333 334 333 332 333 333 333 333 333 331 329 329 329 328 328 328 327 327 323 318 318 323 326 327 328 330 332 333 333 334 334 334 333 333 333
347 344 341 339 338 336 334 334 334 334 333 331 327 321 317 316 315 315 315 316 315 313 312 312 311 312 311 311 312 313 313 314 314 313 313 312 311 310 310 309 310 314 317 318 322 324 325 326 329 332 332 332 332 332 333 334 333 333 332 331 330 327 324 323 324 324 324 326 326 322 315 316 320 324 326 327 330 332 333 333 333 333 332 331 330
346 343 340 338 337 336 335 334 335 335 334 332 328 323 319 317 315 315 315 315 315 314 313 312 312 312 312 312 312 313 314 314 314 313 314 313 311 311 310 309 309 314 318 319 321 323 325 327 329 330 330 331 331 332 333 333 333 333 332 332 330 327 321 319 319 319 319 320 323 323 317 312 315 319 322 325 328 331 332 332 333 332 331 330 329
346 343 340 338 337 336 334 334 335 335 335 332 329 325 321 319 315 314 314 315 315 314 313 312 312 312 312 312 312 313 313 314 314 314 314 313 312 312 311 310 309 312 317 319 321 324 326 327 327 328 329 330 330 330 331 332 333 333 333 332 331 328 321 317 316 315 314 314 317 320 318 314 313 315 319 323 326 328 329 329 331 331 330 328 325
346 343 340 338 338 336 335 334 334 335 335 333 331 327 324 320 316 315 313 315 316 315 314 313 313 312 312 312 313 313 313 314 314 314 315 314 313 312 311 310 309 311 316 318 320 323 325 326 327 328 328 328 329 329 329 329 330 330 331 329 328 325 320 318 317 316 315 312 313 317 318 315 312 313 315 317 319 322 324 326 327 327 326 324 320
345 343 340 339 338 336 335 334 335 335 335 334 332 329 326 321 317 315 313 314 315 315 314 313 313 312 312 312 312 312 313 313 313 314 315 315 314 313 312 311 310 310 315 318 320 321 324 325 327 328 328 328 329 329 328 327 325 324 324 323 324 323 321 321 319 317 317 313 310 313 316 315 312 312 313 314 314 315 318 322 325 325 324 320 315
345 342 340 339 338 335 335 334 335 335 335 335 333 331 326 322 318 316 314 314 314 315 315 314 313 313 313 313 312 312 312 313 313 313 314 315 314 313 312 311 310 309 313 318 320 321 323 325 326 327 328 329 330 329 329 326 322 322 323 322 324 324 323 321 319 318 316 311 310 311 311 312 311 311 311 312 311 312 313 316 321 323 323 319 313
344 341 340 338 337 335 334 334 335 335 336 335 334 332 327 323 320 317 315 314 314 314 315 314 314 314 313 313 312 312 311 312 313 313 314 315 314 313 313 311 310 310 311 316 320 322 323 325 326 327 329 330 330 330 329 325 323 324 325 324 324 324 323 321 318 315 312 309 309 309 308 309 310 311 311 311 312 312 310 314 317 316 318 319 317
344 341 339 337 336 335 334 335 335 336 336 335 335 331 327 325 323 322 318 316 315 314 314 315 315 314 314 313 313 312 311 311 312 312 313 314 314 314 313 312 310 310 310 313 319 322 324 325 326 327 329 329 330 330 328 325 324 326 326 326 325 324 324 321 315 311 310 309 309 308 307 308 308 310 311 310 314 315 310 312 316 315 317 319 318
343 340 338 336 335 334 335 335 335 336 337 336 335 330 327 328 328 327 324 321 318 316 315 315 314 314 314 314 313 313 311 311 311 312 313 314 315 315 314 313 311 310 310 311 315 321 324 325 327 328 329 329 330 330 327 324 324 326 326 326 326 326 324 319 312 309 309 309 309 309 309 309 309 309 308 308 311 316 316 314 315 316 317 315 313
342 339 336 334 333 334 334 336 335 336 337 336 335 331 328 330 331 330 330 328 325 322 320 318 316 314 314 314 314 313 312 311 311 311 312 313 314 315 315 314 312 310 310 310 312 317 323 325 327 329 328 330 331 330 328 325 325 326 326 326 328 325 319 313 310 309 309 309 309 310 311 311 312 310 310 310 310 316 320 319 319 318 314 312 311
341 337 334 332 332 333 334 335 336 336 338 337 336 333 330 331 333 332 332 332 330 329 327 325 321 318 316 314 314 314 313 311 311 311 312 312 313 315 314 314 313 310 309 310 311 314 321 325 327 328 329 331 332 330 328 326 325 325 326 328 328 322 314 309 309 309 309 309 309 310 311 310 310 309 311 315 315 317 318 316 318 317 313 313 316
340 336 332 331 331 332 334 335 335 336 338 338 337 335 333 333 334 333 334 333 333 332 331 329 327 325 322 318 316 314 314 313 311 311 312 312 313 314 314 314 313 312 310 309 310 312 319 325 326 328 330 332 332 330 329 328 326 326 328 329 328 323 317 311 308 309 309 309 309 310 311 310 310 309 312 315 314 314 312 312 314 313 313 314 317
338 335 332 331 330 331 333 335 335 336 337 338 338 337 335 335 335 334 334 334 334 334 333 332 331 330 329 326 322 318 315 314 313 311 311 312 312 313 314 314 314 313 311 309 310 310 317 324 327 330 332 332 331 330 329 328 327 328 329 330 329 326 321 315 311 309 308 309 309 310 311 311 311 310 311 311 311 310 309 313 314 312 314 315 315
336 334 332 331 330 330 332 334 336 336 337 338 339 338 337 336 336 336 335 335 334 334 334 334 333 332 331 330 328 326 321 317 315 313 312 312 313 313 314 314 314 313 312 310 310 309 315 324 329 331 332 331 330 329 328 329 329 329 330 330 329 327 325 322 317 312 309 309 309 309 310 311 312 312 311 311 311 311 310 312 312 311 314 315 314
335 333 332 331 330 330 331 333 335 337 337 338 339 340 339 338 337 337 336 335 335 335 335 334 334 333 331 331 330 330 328 322 317 315 313 312 313 313 314 315 314 314 313 311 310 310 315 324 330 332 331 331 329 326 329 331 330 329 330 330 328 329 328 325 321 315 312 310 309 309 309 310 311 311 312 312 312 311 311 311 311 311 313 316 315
335 333 331 330 330 330 331 332 335 336 337 337 338 340 340 340 339 339 338 336 336 335 335 335 333 332 332 332 331 331 332 327 321 317 315 314 313 315 315 315 316 314 314 312 310 312 317 326 331 331 331 331 328 326 329 331 331 330 329 328 329 330 329 326 322 317 315 313 312 311 310 310 309 310 310 311 312 311 311 311 312 311 312 315 315
336 334 331 330 329 329 329 331 333 335 336 336 338 339 340 340 339 339 338 337 336 335 335 334 332 331 332 332 332 332 332 330 325 319 317 316 316 318 318 318 318 315 314 313 311 313 318 326 331 331 332 332 329 326 327 329 331 330 327 327 329 329 327 326 324 321 318 316 314 313 311 311 310 310 309 310 310 311 311 311 311 311 310 311 311
337 335 332 329 328 328 328 329 330 332 333 335 337 337 339 339 339 339 338 337 336 336 335 333 331 331 332 333 334 334 332 330 327 322 317 318 319 321 321 320 319 316 315 314 312 313 319 327 330 331 332 333 332 328 325 328 331 330 328 329 328 327 327 326 327 326 324 321 318 316 313 312 312 312 310 309 309 309 310 310 310 310 310 309 309
338 336 333 329 326 326 327 327 328 329 330 333 334 334 335 336 338 339 337 337 336 336 334 332 332 331 333 334 336 335 331 327 327 325 319 319 323 324 323 322 320 318 315 315 314 312 317 327 330 332 333 333 333 331 328 327 329 329 330 330 327 326 328 328 329 329 328 326 323 319 317 315 314 313 312 310 309 309 308 308 309 308 309 309 309
339 337 335 329 325 326 326 327 328 328 329 330 331 330 330 331 336 338 336 336 336 335 333 332 332 332 335 336 337 333 326 324 324 324 320 321 326 325 325 325 322 320 317 316 315 312 316 326 330 332 333 332 332 332 329 327 328 329 329 328 326 327 328 328 329 330 330 329 326 323 320 318 316 314 313 313 312 310 309 308 308 308 308 308 308
340 338 336 330 325 326 327 328 329 329 329 329 328 328 328 328 333 336 336 336 335 334 333 332 332 334 337 337 337 331 324 324 324 324 322 321 326 327 327 327 324 322 319 317 317 315 315 323 330 331 332 332 332 332 331 329 328 328 327 327 329 328 327 327 327 329 330 329 328 324 321 320 318 316 315 315 313 312 311 310 309 308 307 307 307
339 338 335 329 325 326 328 329 330 331 330 330 329 328 327 326 329 333 335 335 334 334 332 331 333 336 337 336 336 330 324 324 324 326 325 320 324 328 328 327 324 322 321 319 318 318 317 319 325 327 329 331 332 332 331 329 328 326 326 330 332 330 328 328 328 329 330 330 328 325 323 322 320 318 317 316 315 314 313 312 310 309 308 308 307
341 338 334 329 326 327 329 330 331 331 331 331 330 329 327 325 326 328 331 333 333 333 331 330 334 337 336 334 334 329 326 325 324 326 326 321 321 326 327 326 325 323 322 322 320 320 320 319 320 322 326 330 331 330 329 327 326 326 328 331 332 331 331 330 330 331 329 329 328 326 324 323 322 320 319 318 317 316 315 313 312 311 309 308 308
343 340 335 331 329 328 329 331 331 332 332 332 331 329 328 326 324 325 328 331 332 332 331 332 335 337 335 333 332 329 327 326 326 326 326 326 323 324 326 325 326 325 323 323 322 321 323 323 321 321 324 327 329 328 326 325 325 327 329 330 330 331 331 330 330 331 329 328 327 325 325 324 323 321 321 320 318 317 316 315 314 313 311 310 309
343 341 338 333 330 329 330 331 332 332 332 332 331 330 328 326 325 325 327 331 332 330 331 334 336 336 334 332 329 327 327 325 327 329 328 329 328 327 327 325 324 324 323 324 324 324 324 324 324 323 324 326 327 326 325 324 324 326 328 329 329 329 329 328 330 331 330 329 327 326 325 324 323 323 323 322 321 320 318 316 315 314 313 311 310
341 341 338 334 331 330 330 331 332 331 332 332 332 330 329 327 325 324 327 331 331 329 331 334 335 333 331 329 327 327 327 327 329 331 329 329 330 330 330 327 324 322 322 324 325 325 325 325 324 323 324 325 325 324 323 324 325 326 328 330 330 330 329 328 330 331 331 330 328 326 325 324 324 324 324 323 323 320 318 318 316 315 314 312 311
341 340 338 336 334 332 330 330 331 331 331 332 332 331 329 327 325 326 329 331 330 330 332 334 333 331 329 328 327 327 329 329 330 331 330 329 329 331 331 329 326 322 320 323 325 326 326 325 324 324 324 324 323 321 322 324 325 326 328 330 330 330 330 330 330 331 331 330 329 327 326 325 324 324 323 323 323 321 320 319 317 315 314 313 311
342 341 340 338 337 335 332 330 330 331 330 331 331 331 330 328 326 327 330 330 330 330 332 332 331 329 329 329 327 327 330 331 330 330 329 329 329 331 331 329 327 324 320 322 324 326 327 326 325 325 324 324 322 320 320 322 324 326 329 330 330 330 330 330 330 331 331 331 329 327 326 326 325 324 323 322 321 320 319 317 315 314 314 313 312
343 342 342 341 340 338 336 335 335 335 332 330 330 331 330 328 327 328 329 330 329 329 330 330 329 329 329 329 326 327 330 331 331 331 329 329 330 331 331 330 327 326 323 323 324 325 326 326 325 326 326 324 322 320 321 322 324 328 330 330 329 329 329 330 331 331 331 331 328 327 326 325 325 324 323 321 319 318 317 315 314 314 315 315 312
342 342 342 342 342 341 341 341 339 339 336 331 330 331 331 329 327 328 329 330 329 328 329 330 329 329 329 328 328 328 330 331 331 330 330 330 331 332 332 330 329 328 326 326 325 324 323 324 324 325 325 324 323 323 323 325 327 330 330 330 329 329 330 330 330 330 331 330 328 327 326 325 325 323 322 320 318 317 316 316 314 313 314 314 310
342 341 342 342 342 342 342 342 341 340 338 333 331 332 332 331 328 328 329 329 329 328 329 330 329 329 329 330 331 330 330 331 332 330 329 332 333 333 332 331 330 330 329 329 327 324 323 323 322 323 324 323 323 326 327 328 330 331 330 329 329 330 330 330 330 331 331 330 328 327 326 326 325 322 321 319 318 319 320 321 319 313 310 310 308
342 341 342 342 342 342 341 341 341 341 339 337 335 334 333 332 330 329 330 329 328 328 329 330 329 329 330 331 332 331 331 331 332 330 328 332 333 332 332 331 331 331 330 330 328 326 325 324 323 323 324 325 327 329 329 330 330 330 330 329 329 329 330 330 330 331 330 330 328 327 327 328 326 323 321 321 321 323 325 326 325 315 308 307 307
342 342 342 342 342 341 341 341 340 340 340 339 338 336 335 334 331 331 331 331 329 328 329 330 329 330 331 332 332 332 331 331 332 330 326 329 332 332 332 332 331 331 330 329 328 328 328 326 326 327 328 329 330 330 329 330 330 330 330 329 329 329 329 329 330 330 330 329 328 327 327 328 327 324 323 323 323 325 326 326 325 317 310 309 309
343 342 342 342 341 341 340 338 337 339 340 340 338 337 335 335 333 331 332 332 330 329 330 331 331 331 332 333 333 333 332 332 333 331 326 325 329 331 333 332 332 332 329 327 328 329 329 328 329 330 331 330 329 329 329 330 330 330 329 329 329 329 329 329 330 330 329 329 328 327 327 327 327 326 324 324 324 325 326 325 323 319 315 314 314
342 342 342 342 341 339 335 332 332 336 337 337 338 337 337 336 333 331 332 332 331 331 331 332 332 331 333 334 333 334 333 332 333 332 328 326 327 331 332 332 332 331 329 328 329 329 329 330 331 331 330 330 329 329 330 331 330 330 330 329 330 329 329 330 330 330 330 329 328 326 326 327 327 327 325 322 323 324 325 324 322 320 320 320 320
342 342 341 340 339 335 329 328 331 332 333 336 337 337 337 336 332 331 332 332 331 332 332 333 333 332 333 334 334 334 333 333 332 332 331 327 327 330 331 331 332 331 329 329 329 329 330 331 332 330 329 330 330 330 330 330 330 330 330 329 329 329 330 330 330 330 330 329 328 327 326 326 326 327 326 323 322 324 324 323 322 322 323 323 324
342 341 340 338 335 330 327 330 332 333 334 337 338 337 338 336 333 332 332 332 331 331 332 333 333 333 333 333 334 334 333 333 332 333 332 329 328 330 331 331 332 331 329 329 329 330 331 331 331 329 329 330 330 330 330 330 330 330 330 329 328 329 330 330 330 330 330 329 329 328 326 325 326 327 326 324 322 322 323 323 323 323 324 325 326
342 340 339 336 332 328 329 332 334 335 336 337 337 337 337 336 334 333 333 332 330 330 332 333 333 332 333 333 334 334 333 333 333 333 333 331 329 330 331 331 331 331 329 330 331 331 330 330 330 329 329 330 329 330 330 330 330 330 329 329 329 329 329 329 329 329 329 329 329 328 326 325 327 327 326 325 323 322 322 322 322 323 324 325 326
341 340 338 335 331 329 330 332 334 335 335 335 336 334 336 336 333 332 332 330 329 331 332 332 332 332 332 332 333 334 333 333 333 333 333 332 330 330 330 330 331 331 329 330 331 330 329 329 329 329 329 329 329 329 330 330 330 329 329 329 329 329 329 329 329 329 329 329 328 327 326 325 327 327 326 325 324 322 323 323 322 322 323 324 325
341 339 337 335 332 330 330 331 333 335 334 334 333 332 334 335 334 333 331 330 330 332 332 332 332 331 331 331 332 333 333 333 333 333 333 332 332 330 329 329 330 331 329 329 331 329 329 329 329 330 328 328 330 330 330 330 329 329 329 329 328 328 328 328 328 328 328 328 328 327 327 326 327 327 326 325 325 324 325 325 324 322 322 323 324
340 337 336 335 334 331 329 331 334 335 334 334 332 332 333 334 334 333 330 330 332 333 333 333 332 331 330 330 331 333 333 332 333 333 332 332 332 330 329 330 331 331 330 329 330 329 328 329 329 330 328 327 329 330 330 330 329 329 329 327 327 327 329 329 327 327 328 328 328 328 328 328 326 326 325 325 325 326 326 325 324 323 322 323 323
338 337 336 336 334 331 330 332 333 335 335 335 334 332 334 334 334 332 328 328 332 333 333 333 332 331 330 330 331 332 333 332 333 333 332 332 332 331 330 330 331 331 331 330 329 328 328 328 329 329 327 327 328 329 330 329 329 329 328 327 326 326 328 329 327 326 326 326 328 328 328 328 326 326 326 326 326 325 326 326 325 325 324 324 325
338 337 337 336 335 332 330 331 332 332 333 334 334 333 334 335 333 330 326 326 330 332 332 331 331 331 330 331 331 331 331 332 332 332 332 331 332 331 329 328 330 331 331 330 328 328 328 328 330 329 328 328 328 329 329 329 329 329 328 328 327 326 327 328 326 326 326 325 326 327 327 327 327 327 327 327 326 325 326 326 325 325 324 325 326
338 337 337 336 336 333 331 331 332 332 331 331 333 334 335 335 332 328 325 327 329 331 331 330 331 331 331 331 331 331 331 331 332 332 332 331 332 331 328 329 331 331 331 329 327 328 329 329 331 330 329 329 328 328 328 328 329 329 328 328 328 327 327 327 326 326 326 325 326 327 326 327 327 327 327 326 326 326 326 325 325 325 324 325 325
338 338 337 336 335 333 331 331 332 332 330 329 330 332 333 333 330 326 325 327 329 329 329 330 330 331 331 331 331 331 331 331 331 332 331 331 331 330 329 330 331 331 330 328 327 328 329 329 331 330 328 328 327 327 328 328 328 328 328 328 328 327 327 328 326 326 325 325 325 327 327 327 327 327 326 326 326 326 326 325 324 324 324 324 324
338 337 336 336 334 332 331 330 330 330 329 328 328 328 328 328 327 325 326 327 328 329 330 330 331 331 331 331 330 330 331 331 331 332 331 331 331 330 330 331 330 329 329 328 328 329 330 330 330 329 328 328 328 328 329 329 328 328 328 327 328 328 327 328 327 326 325 324 325 326 327 326 326 326 326 326 326 326 326 325 324 324 325 325 324
338 337 336 335 333 332 332 330 329 328 327 328 329 328 327 327 327 326 326 327 328 329 329 330 331 331 331 331 330 330 331 332 332 332 331 331 331 330 330 330 329 329 329 329 329 329 329 330 330 329 329 328 328 328 329 329 329 328 328 328 327 327 327 328 327 326 326 325 324 324 326 326 325 326 326 326 326 326 325 324 324 324 325 324 323
336 335 335 335 334 333 332 331 330 328 328 327 327 329 329 329 328 328 327 327 328 328 328 330 331 331 331 331 331 330 330 331 332 331 331 331 331 330 329 329 329 330 330 329 329 328 329 330 330 330 329 328 329 329 329 330 330 329 328 328 327 327 327 326 326 326 326 326 325 324 325 325 325 326 326 325 326 325 325 324 324 325 325 324 323
Wind_Speed
27 28 28 28 27 26 25 25 25 24 22 21 20 20 21 21 22 22 22 21 20 20 19 19 18 18 18 18 17 17 16 15 14 14 13 13 13 14 15 15 16 17 19 22 22 21 19 19 19 19 20 20 20 22 21 21 20 18 17 17 18 17 17 17 15 15 15 15 14 15 15 14 15 14 15 16 16 16 15 16 16 17 16 16 15
32 30 30 30 29 28 27 27 26 25 23 22 22 21 21 22 22 22 23 21 21 20 20 19 19 19 19 18 18 17 16 15 15 14 14 14 14 14 15 15 16 17 18 20 20 20 20 21 21 21 21 21 21 21 21 21 19 19 17 16 16 15 14 14 13 13 13 13 14 14 15 15 15 14 14 14 15 16 16 16 16 17 16 15 15
33 32 31 30 30 28 27 28 27 26 24 24 22 22 22 21 22 23 23 22 21 21 20 20 20 20 20 19 18 17 17 16 15 14 14 14 14 14 15 15 16 17 18 19 20 21 21 22 22 21 20 20 21 21 20 19 18 18 17 16 15 13 12 11 11 11 11 11 12 13 14 14 15 14 13 13 14 15 16 16 15 16 15 14 13
30 31 31 30 29 27 26 27 27 25 24 23 22 22 21 21 21 22 23 22 22 21 21 21 21 21 20 20 18 18 17 16 15 14 14 14 14 14 14 16 16 17 18 20 22 23 23 23 23 22 20 21 21 20 19 18 17 16 16 15 14 13 12 12 12 11 11 10 9 10 11 12 14 15 14 13 13 14 14 14 14 14 13 11 11
28 30 31 30 28 26 25 26 25 24 22 21 21 21 20 20 20 22 23 22 22 22 21 21 21 21 21 20 18 18 17 16 15 14 13 14 14 14 14 16 16 17 19 21 23 24 24 24 23 22 22 22 21 20 18 17 16 15 14 13 12 12 13 13 13 13 11 9 8 8 9 11 13 14 14 14 13 13 13 13 12 12 12 11 12
27 29 30 30 29 27 26 26 25 24 22 21 20 20 20 20 19 21 23 23 22 22 21 21 21 21 21 20 19 18 17 16 15 14 13 13 13 13 15 15 16 17 19 21 23 25 25 25 24 23 23 22 20 19 18 17 15 13 12 11 11 11 12 13 13 14 13 10 8 7 8 9 11 12 13 14 13 13 12 12 11 11 11 10 12
26 29 30 30 29 28 27 27 27 25 24 22 21 20 20 20 19 20 22 23 22 22 21 21 21 21 21 20 19 18 17 16 16 14 13 13 12 13 15 16 17 17 19 21 22 24 25 24 23 22 21 20 19 17 16 15 14 13 11 12 12 11 12 12 13 14 14 12 8 7 7 8 10 11 11 12 12 12 12 12 11 10 9 9 11
27 28 29 30 29 28 27 27 28 26 25 23 22 21 20 20 19 20 21 22 21 21 21 21 21 20 20 19 18 18 17 17 16 15 14 13 12 13 14 16 17 17 19 21 22 23 24 24 23 22 20 19 17 16 14 13 13 13 13 14 13 11 12 13 13 14 14 13 9 7 7 8 10 11 11 10 10 10 11 11 10 9 9 8 9
27 27 29 29 29 28 27 27 27 26 25 24 22 20 20 19 19 19 20 21 21 21 21 20 20 20 19 18 18 17 17 17 16 16 14 14 13 12 14 15 16 16 18 21 22 22 23 23 22 21 20 18 16 15 13 12 13 14 14 14 13 12 12 13 13 14 14 13 11 10 9 10 11 11 10 10 8 8 8 9 9 8 8 8 8
27 27 28 28 28 28 27 27 27 26 25 23 22 20 19 19 18 18 18 19 19 20 20 20 20 19 19 18 17 16 16 17 16 16 15 14 13 12 13 15 16 17 17 19 21 21 22 22 21 20 19 17 15 13 11 11 13 13 13 13 13 13 14 14 14 14 14 14 11 11 12 12 12 12 11 10 9 8 8 8 8 7 8 9 9
27 27 28 28 27 27 27 27 27 26 25 23 22 21 20 19 18 17 17 17 18 18 19 19 19 18 18 17 16 15 16 16 16 16 15 15 14 13 13 14 16 17 17 19 20 21 22 21 21 20 18 16 14 11 9 10 12 12 12 13 14 14 15 15 15 15 15 14 11 11 13 14 14 14 13 12 11 11 10 10 11 10 10 11 11
27 27 27 27 26 26 26 26 26 25 24 23 22 21 20 19 17 16 16 15 16 17 17 17 17 17 17 17 16 15 15 16 16 16 15 15 14 14 13 14 15 17 17 18 20 21 21 21 21 19 17 15 12 10 8 9 11 11 12 13 13 14 14 15 15 16 15 14 11 11 14 16 16 15 14 13 13 14 13 13 13 12 12 11 11
27 27 27 27 26 25 25 25 26 25 23 23 22 21 20 18 17 15 15 15 15 15 15 15 16 16 16 17 16 15 15 15 16 17 16 15 14 14 13 14 15 16 16 17 19 20 21 21 21 20 17 14 11 9 8 8 10 10 11 12 13 14 15 16 16 16 15 14 12 10 13 16 16 15 15 14 14 14 14 14 13 13 12 11 11
26 27 27 27 26 25 24 24 25 24 23 22 22 21 19 18 16 15 14 14 13 13 13 14 14 15 16 16 16 15 15 15 16 17 16 15 15 14 13 14 14 15 16 17 18 20 21 21 21 20 17 14 11 9 7 6 8 11 11 12 13 15 16 16 17 16 14 13 12 11 13 16 16 14 14 14 14 14 15 14 14 13 12 12 13
26 27 27 27 26 26 24 24 24 24 23 22 22 21 19 17 16 15 15 14 13 12 12 12 13 13 14 14 15 14 14 14 15 17 17 16 15 14 14 14 14 14 15 16 18 19 21 22 22 20 17 14 12 9 7 6 8 11 11 12 13 15 16 16 16 15 14 13 12 11 12 14 13 12 13 14 14 14 14 13 13 13 12 13 14
25 26 26 26 25 25 24 23 23 22 22 22 21 20 18 17 17 16 15 14 13 12 12 11 11 12 12 12 13 13 13 13 14 16 16 16 15 15 14 14 14 14 15 16 17 19 21 23 23 20 17 14 11 9 8 6 8 11 10 11 13 14 15 15 15 14 14 13 12 12 11 10 11 11 12 12 13 13 12 12 13 12 13 14 14
24 25 25 25 25 25 25 24 23 22 22 21 19 19 18 17 17 17 16 15 13 13 12 11 11 10 11 11 11 11 11 12 13 14 15 16 16 15 14 14 14 14 14 15 16 19 22 24 23 20 17 14 11 9 7 5 7 9 9 10 11 13 14 14 14 14 13 12 12 12 11 10 9 10 10 11 11 11 11 12 12 11 12 13 13
23 24 24 25 26 25 25 24 24 23 22 21 19 18 18 18 17 17 16 15 14 13 13 11 11 10 10 9 9 9 10 11 11 13 14 15 15 15 14 14 14 14 15 15 16 19 23 25 23 20 17 14 11 9 7 5 5 8 8 9 10 12 13 14 15 14 13 13 12 11 11 11 10 9 9 9 9 9 10 10 10 10 11 11 11
23 24 24 25 26 25 25 24 24 23 22 21 20 18 18 18 17 16 16 15 15 14 13 11 11 11 10 9 8 8 9 10 11 12 13 14 14 13 13 14 15 15 16 16 17 20 24 25 23 21 17 15 12 9 7 5 5 7 7 8 9 11 13 14 15 15 14 13 12 11 10 10 10 10 9 9 9 8 8 8 9 9 10 10 11
24 25 25 25 25 25 24 23 23 22 21 20 19 18 17 17 16 16 15 15 15 13 12 11 11 11 10 9 8 9 10 11 11 11 12 13 13 12 13 13 14 16 16 16 18 21 24 24 23 20 17 15 13 9 6 4 4 6 6 7 9 11 12 13 14 16 15 13 12 11 10 10 10 10 10 9 9 8 8 8 9 9 9 10 10
25 25 25 25 24 24 23 22 22 20 20 19 19 18 17 17 16 16 15 15 14 12 12 12 12 11 10 10 11 12 12 12 13 12 12 13 13 12 13 13 14 16 17 17 19 22 24 24 23 21 17 15 12 9 6 3 2 4 6 7 8 9 10 11 12 14 14 14 12 11 10 9 9 9 9 9 9 8 8 8 9 9 9 9 9
26 27 25 24 24 23 23 22 21 20 19 18 18 18 17 18 17 16 15 14 13 12 12 12 12 11 12 12 12 12 12 12 13 14 12 12 12 13 13 13 14 16 17 18 19 22 23 24 23 21 18 15 12 10 7 4 1 3 4 6 7 7 8 9 10 12 13 13 12 11 9 8 8 9 9 8 8 8 8 8 8 8 8 8 8
27 28 26 25 24 24 23 22 22 20 19 18 18 18 18 18 17 17 16 15 14 13 13 12 12 13 14 14 12 11 10 9 11 12 12 12 12 12 13 13 13 15 17 18 18 21 23 25 24 21 19 15 12 10 8 6 3 1 3 4 5 5 6 7 9 11 12 12 11 10 10 8 7 7 7 7 7 8 8 8 8 8 7 7 7
26 29 27 25 24 24 23 22 21 20 20 19 19 18 18 18 18 17 16 16 15 14 14 13 13 14 14 13 12 11 9 8 8 9 10 11 12 12 13 12 13 14 16 18 19 20 22 25 24 22 19 16 14 11 9 7 4 1 1 3 3 4 5 7 8 9 11 11 11 10 9 8 7 6 6 6 6 6 6 7 7 7 7 6 6
25 28 26 25 24 23 23 22 21 20 20 19 19 18 18 18 18 18 17 17 17 16 15 14 15 15 15 14 13 11 10 9 9 10 10 10 12 13 12 12 12 14 16 17 19 20 21 23 24 22 20 18 15 12 11 8 6 3 1 3 3 3 5 6 7 8 9 9 10 9 8 8 7 5 5 5 5 5 5 6 6 6 6 6 6
23 26 26 24 23 23 21 21 21 20 19 18 18 18 18 18 18 19 19 19 18 17 15 15 16 16 15 14 13 12 10 9 9 10 9 8 12 13 13 12 11 13 15 17 18 19 20 21 23 22 21 19 16 13 12 10 7 5 3 3 4 4 4 5 6 7 7 8 9 8 7 6 6 5 5 5 5 4 4 4 4 4 4 5 5
22 24 25 24 23 22 21 21 20 19 19 18 18 18 18 18 19 19 20 20 19 17 16 16 17 16 15 14 13 12 11 10 10 10 8 8 10 12 12 11 11 12 14 16 18 19 20 20 21 22 21 20 18 14 12 10 9 7 5 5 5 6 5 5 6 7 7 7 7 6 5 5 5 5 5 4 4 4 3 3 3 3 3 3 3
20 22 24 24 22 21 20 20 20 19 18 18 18 19 19 19 19 19 20 19 19 18 17 17 18 16 15 14 13 13 11 10 12 11 9 9 11 11 12 11 12 12 13 15 17 18 19 20 20 21 20 20 18 14 12 11 10 8 6 5 6 6 6 6 6 6 6 6 6 5 5 4 4 4 4 4 4 3 3 2 2 2 2 2 2
19 20 22 22 21 20 20 20 19 18 18 19 19 20 20 20 20 20 19 19 18 17 17 18 18 17 16 16 15 13 11 11 13 12 10 10 11 12 11 11 12 13 14 15 17 18 18 19 19 19 20 19 18 15 12 12 10 8 6 6 5 5 6 7 6 5 5 5 5 4 4 4 4 3 3 3 3 2 2 2 2 1 1 1 1
17 17 18 19 19 19 19 19 19 19 19 20 20 20 21 20 20 19 18 18 17 17 17 18 18 18 17 17 15 13 13 13 13 12 11 11 12 12 11 10 11 13 15 16 17 18 18 18 18 18 18 18 17 14 13 13 11 9 7 6 5 5 7 7 6 4 4 3 3 3 3 3 3 3 3 3 3 2 2 2 2 2 1 1 0
16 16 16 16 16 17 18 18 19 19 20 20 19 20 21 19 18 19 19 17 16 16 17 18 18 18 16 16 15 14 14 13 12 13 12 12 12 13 12 11 11 12 14 15 16 17 18 17 17 16 16 15 15 14 13 13 11 9 8 6 5 6 7 8 6 4 3 2 1 1 2 2 2 2 2 2 2 2 3 3 3 3 2 1 1
17 16 15 15 15 16 17 17 18 18 20 21 20 21 22 20 18 19 19 18 17 17 18 18 18 17 15 14 14 15 14 13 13 12 12 13 13 13 13 12 12 13 14 14 15 16 18 18 17 16 15 15 13 13 12 13 12 10 8 6 6 6 8 7 5 4 3 2 0 1 1 1 2 2 2 2 2 2 3 4 5 4 2 2 1
17 16 14 13 14 14 14 15 17 18 19 21 22 23 23 22 21 21 20 18 18 19 19 19 18 16 15 14 14 15 14 13 13 11 12 12 13 13 13 13 12 13 14 15 15 16 18 18 18 17 16 15 14 13 13 13 12 9 8 7 7 7 7 6 4 4 3 2 1 0 1 2 2 2 3 3 3 3 3 5 7 6 4 3 3
14 14 13 12 13 12 11 14 17 17 19 22 23 24 25 24 23 23 21 19 19 19 19 19 18 16 16 16 15 14 13 13 13 11 12 12 13 14 13 13 12 12 13 14 15 16 17 18 18 17 16 15 15 16 15 13 11 9 8 8 9 9 7 5 4 4 3 2 2 0 1 2 3 3 3 3 3 3 4 5 7 7 5 3 4
12 11 11 11 10 9 9 12 16 18 21 24 23 24 27 26 25 24 22 21 20 21 21 21 19 18 18 18 17 15 13 14 13 12 12 12 13 14 14 13 12 12 12 13 14 15 16 17 16 16 16 16 15 15 13 11 10 10 9 9 9 9 7 5 5 5 4 3 2 1 1 2 3 3 3 3 4 5 5 4 4 5 5 5 6
11 9 10 10 9 8 9 12 15 19 23 24 23 24 27 27 26 24 22 21 20 22 22 21 20 19 19 19 18 16 14 14 13 13 14 13 13 13 13 13 13 13 12 11 12 12 14 15 15 15 15 15 14 12 11 10 10 9 8 8 8 8 7 6 6 6 5 4 2 1 2 2 3 3 3 3 3 4 5 4 3 5 6 7 9
10 9 10 9 8 8 11 13 16 20 23 25 24 25 26 27 26 24 22 20 20 20 21 21 20 20 20 19 17 17 16 15 15 14 15 14 13 13 13 13 14 14 11 10 11 11 11 12 13 14 13 13 12 12 11 10 9 9 8 8 8 8 7 6 6 7 6 5 3 2 2 2 3 2 2 2 3 3 4 4 4 6 8 10 11
12 11 10 9 9 9 11 14 17 19 21 23 24 25 26 26 25 23 21 20 21 19 20 21 21 21 20 18 17 19 18 17 17 16 15 15 14 14 14 14 15 15 13 12 12 11 11 11 13 14 13 12 11 12 11 10 9 8 8 8 8 8 7 7 8 7 6 6 4 3 3 3 3 2 2 2 3 3 4 4 5 6 7 8 10
13 12 11 10 11 11 11 14 15 16 16 18 21 24 25 25 24 24 21 21 21 21 22 22 21 21 20 18 18 19 20 19 18 18 17 15 14 14 15 15 16 15 15 15 14 13 13 14 13 14 14 13 11 10 10 9 9 9 9 9 8 7 7 8 8 7 7 6 6 4 4 3 3 3 2 2 3 4 4 5 5 4 4 4 5
14 12 11 10 11 11 12 14 14 13 13 16 19 24 27 25 24 25 24 22 22 23 24 23 22 21 20 19 19 19 20 20 19 18 18 16 15 16 16 16 17 17 16 16 15 15 15 14 13 14 15 14 13 10 9 9 9 10 10 9 8 7 8 7 7 7 6 6 6 5 4 3 3 3 3 2 2 3 4 4 5 4 3 2 2
15 13 11 10 10 10 12 14 13 11 11 15 18 23 27 26 24 26 25 24 24 25 25 23 22 21 20 20 20 20 21 20 20 19 19 18 17 18 18 17 18 19 18 16 16 16 15 14 14 14 14 14 13 11 10 10 10 10 10 10 8 8 8 7 6 6 6 6 6 6 4 4 4 4 3 2 2 3 4 4 4 4 3 3 2
17 16 13 10 9 9 11 12 11 10 10 12 16 19 23 25 25 24 24 24 25 25 24 24 22 21 21 21 20 20 21 21 20 19 19 19 18 19 19 19 21 21 18 16 17 17 16 15 15 15 15 13 11 12 12 12 11 11 11 11 10 8 8 7 7 6 6 6 6 6 5 5 5 5 4 3 3 4 5 4 4 4 4 4 3
18 17 14 10 9 9 10 10 9 9 10 13 15 17 20 24 25 24 23 25 26 25 24 24 23 22 22 21 20 20 21 21 20 19 19 20 19 19 18 19 22 21 18 18 19 18 16 15 15 14 14 13 12 12 13 13 11 11 12 11 10 8 6 7 8 7 7 6 7 7 6 5 6 6 6 5 5 6 5 4 4 4 4 4 3
19 18 13 8 9 8 8 8 8 9 11 13 15 16 20 25 25 24 23 24 25 26 26 25 24 23 22 20 20 20 21 21 20 19 19 20 19 19 18 19 22 21 19 19 19 17 16 14 14 14 13 14 13 13 14 13 11 11 11 10 10 9 7 7 9 9 9 8 7 8 7 7 7 7 7 6 7 7 5 4 4 3 3 3 3
20 17 10 6 8 7 7 7 8 9 11 13 16 18 22 24 25 25 24 25 26 26 27 26 24 22 21 20 20 21 21 20 20 19 19 19 19 19 19 19 21 20 18 18 17 16 14 13 13 13 12 13 13 14 14 14 12 10 9 7 7 8 9 11 10 9 10 10 8 8 8 9 8 8 8 7 8 7 5 5 4 3 3 3 3
19 15 10 8 7 7 9 10 11 11 12 15 18 21 23 24 25 26 25 25 27 27 25 24 22 20 20 20 20 20 20 20 20 19 18 18 19 20 20 19 20 19 18 18 16 15 13 13 13 12 12 12 11 13 14 14 14 12 10 8 6 5 7 12 13 10 10 10 8 9 9 9 9 8 8 9 8 7 6 5 5 4 4 4 4
19 15 12 10 8 10 13 14 14 15 15 17 19 23 25 26 26 25 25 25 25 25 23 21 20 19 18 19 19 19 19 19 19 18 17 18 18 19 21 20 19 19 18 17 15 14 13 13 12 12 12 13 12 12 13 14 15 13 12 11 8 6 5 8 12 11 11 12 10 9 9 9 9 8 8 9 8 7 5 4 4 4 4 4 3
20 16 13 11 10 13 16 16 17 17 18 18 20 23 27 28 27 25 26 25 24 23 22 20 19 18 18 18 18 18 18 18 17 17 17 17 17 18 20 19 17 16 16 16 15 14 14 14 13 13 13 14 13 11 11 13 13 13 13 12 10 9 7 6 8 10 10 12 13 10 9 9 9 9 9 9 8 7 5 3 3 3 3 3 3
20 17 15 12 13 16 17 17 17 17 18 19 21 24 27 28 27 27 27 26 25 23 22 20 18 18 18 19 18 18 18 18 17 17 18 18 17 17 18 18 16 15 16 16 15 15 16 15 15 15 15 14 13 11 11 11 11 11 13 13 11 11 10 8 9 11 10 10 12 12 12 12 11 11 10 9 8 7 5 4 3 3 3 2 3
21 19 15 13 13 16 17 17 17 17 17 19 22 25 27 29 29 28 27 27 26 25 23 20 18 18 19 19 20 19 19 18 17 17 18 18 18 18 19 18 16 16 16 16 17 17 17 16 15 15 15 14 13 12 11 10 9 11 13 13 12 12 12 11 12 14 12 11 10 11 14 14 13 12 10 9 8 6 5 4 4 4 3 2 2
15 13 11 12 13 15 16 17 17 17 18 20 22 26 28 30 30 30 28 27 26 25 23 21 19 18 19 19 20 20 20 19 18 18 18 18 18 18 18 18 16 17 17 18 18 17 17 17 15 15 15 13 13 13 12 10 10 11 13 14 13 12 11 11 11 12 13 12 10 10 14 14 12 12 11 9 8 6 6 5 5 5 4 2 1
Wind_Direction
170 170 170 170 170 167 166 166 164 161 157 154 154 156 159 161 161 160 158 155 152 150 148 146 144 142 141 139 137 135 133 130 123 116 110 104 98 94 93 93 95 95 102 108 108 108 108 106 106 107 103 101 99 99 99 97 97 97 98 97 95 93 93 94 93 91 90 90 90 94 97 96 93 90 89 89 90 90 90 90 91 90 88 87 85
170 170 171 172 171 169 169 168 166 162 158 156 155 156 158 160 161 161 160 156 153 151 150 148 146 145 144 142 139 138 134 130 123 117 112 105 100 97 97 96 97 99 103 108 110 110 111 109 108 110 107 103 100 100 100 100 101 100 98 94 93 95 94 92 91 90 88 86 86 92 99 100 97 95 92 89 89 89 90 89 89 88 87 86 84
170 169 172 172 172 171 170 169 167 163 159 158 156 155 156 159 162 163 161 157 155 153 152 150 149 148 147 144 142 140 136 132 125 120 114 108 102 98 99 99 99 100 104 110 113 112 112 113 112 112 110 107 105 104 102 101 99 98 97 94 95 96 97 96 94 90 86 81 78 84 97 103 101 99 96 93 90 88 88 87 86 85 85 85 84
172 170 172 171 171 171 171 170 167 163 159 158 156 155 155 158 161 164 163 159 157 155 155 152 151 150 149 147 145 143 139 135 129 123 118 109 104 103 103 102 102 102 105 111 114 114 115 118 118 115 112 110 109 107 103 101 100 101 100 96 92 89 91 88 85 81 79 80 80 83 92 102 104 102 100 99 97 92 87 85 82 80 80 78 77
175 172 172 171 170 172 172 171 168 164 161 158 157 156 156 158 161 165 165 162 160 158 156 154 154 152 151 150 147 146 142 138 133 127 120 112 109 111 109 106 106 105 107 111 115 117 119 121 121 118 116 112 110 109 108 107 106 106 103 100 93 87 86 80 75 72 71 83 97 98 98 104 107 108 106 102 102 99 91 86 83 80 77 74 72
177 175 174 172 171 173 173 171 169 166 163 160 158 158 158 158 161 165 166 165 163 160 158 157 156 155 154 152 151 149 146 142 136 131 125 118 117 117 113 112 110 109 110 113 119 122 123 124 123 122 118 114 111 111 111 110 111 113 111 110 102 91 86 76 68 65 62 73 103 111 106 109 111 114 113 109 106 103 97 90 86 83 78 74 75
179 177 176 174 173 174 174 172 170 168 166 163 161 161 160 160 161 164 168 168 165 162 160 159 158 158 157 155 153 152 150 145 140 136 131 126 123 118 116 118 116 114 113 116 122 125 126 127 126 123 119 115 113 112 111 111 117 120 115 108 98 89 84 72 63 59 52 57 88 112 112 115 117 120 119 118 116 113 108 99 92 87 85 80 83
181 179 178 177 176 175 175 174 171 170 169 166 163 162 161 162 164 165 169 169 168 165 163 161 161 161 160 158 157 156 154 148 145 142 138 133 127 121 120 122 121 120 118 119 125 127 128 128 127 123 119 116 113 112 111 112 116 111 103 98 94 88 78 67 59 53 44 48 71 99 114 117 118 124 124 128 129 124 119 112 101 93 90 85 87
182 181 179 178 177 176 176 175 174 173 171 168 164 163 162 164 165 166 168 169 168 167 165 165 164 165 163 162 161 159 157 152 149 146 144 138 131 126 123 123 122 123 122 123 128 130 130 129 127 123 118 115 111 110 112 115 111 104 97 94 92 87 74 63 54 47 40 48 68 89 103 111 115 123 125 128 128 123 121 116 108 102 90 80 86
183 180 179 179 178 177 176 176 176 175 173 170 166 165 165 165 166 166 165 165 167 167 168 169 169 167 166 166 165 164 161 157 153 151 148 142 138 133 127 124 122 125 126 126 131 132 131 130 128 124 119 114 111 111 116 114 106 101 95 87 82 75 66 57 49 45 45 56 74 90 99 104 109 113 115 119 115 111 116 107 98 102 95 80 82
182 180 179 180 179 178 177 178 178 178 175 172 169 167 168 168 167 165 162 162 163 166 169 171 171 170 171 172 171 170 166 161 157 157 154 149 147 142 136 129 124 128 132 132 134 136 134 132 130 126 121 116 116 116 114 105 98 93 85 77 69 63 58 53 49 50 53 64 77 85 95 98 98 100 103 107 101 98 106 100 91 94 94 87 84
181 179 179 179 179 179 178 179 180 179 178 175 172 171 172 171 167 163 161 161 162 165 167 168 170 172 174 176 177 175 172 166 163 162 160 157 153 149 143 134 128 131 137 138 139 140 138 136 133 127 123 121 121 120 111 97 89 84 77 72 64 56 52 52 52 54 56 63 71 80 92 95 95 98 100 101 95 92 93 92 89 89 91 89 88
181 179 178 179 180 180 180 180 181 181 180 177 175 175 176 172 167 163 163 163 165 167 166 166 169 172 174 177 179 177 175 171 167 166 166 164 160 156 149 139 134 135 140 144 144 143 143 140 135 130 128 129 128 124 113 98 90 85 77 71 64 55 52 55 55 55 54 56 62 71 88 92 92 96 97 98 96 92 91 91 89 88 90 91 92
181 179 178 180 180 180 180 181 183 183 182 181 179 179 178 173 168 167 167 167 168 169 168 170 171 174 175 177 179 177 176 173 171 170 170 170 167 163 154 147 143 141 143 146 148 147 147 144 138 136 137 136 135 133 125 112 97 89 80 72 65 61 57 58 58 56 53 53 56 58 75 86 87 88 91 92 93 90 89 90 89 88 90 91 91
182 179 178 180 181 180 181 183 184 184 184 184 183 182 179 176 173 173 174 173 172 173 174 177 179 180 180 179 178 176 175 173 172 173 174 176 174 170 162 156 152 148 148 148 149 151 150 147 143 142 143 142 142 145 143 133 100 87 80 74 68 65 61 59 60 57 51 49 52 52 60 74 80 82 83 85 85 84 85 87 88 90 92 91 89
183 180 179 180 181 181 181 183 185 186 187 187 186 184 182 180 179 180 181 181 180 180 183 184 186 186 186 184 180 178 177 174 173 174 177 179 180 178 170 164 161 156 154 150 148 153 154 149 147 147 147 146 150 157 155 138 100 86 80 74 68 64 61 59 60 58 54 50 51 50 49 59 70 73 75 79 80 79 82 84 86 89 90 89 87
183 181 179 180 183 182 182 183 185 187 189 189 188 186 185 185 186 187 186 188 186 188 191 191 192 192 191 189 185 182 180 177 175 175 177 181 183 183 178 173 170 164 161 156 150 154 156 152 150 150 150 151 159 166 161 142 104 91 84 75 66 62 59 55 55 57 57 55 53 49 45 47 57 65 70 73 75 76 75 78 82 84 86 88 89
182 181 181 183 184 185 184 184 185 187 190 189 188 187 188 189 190 192 192 193 193 195 197 195 196 195 195 194 191 189 186 182 179 180 182 183 185 184 183 180 177 172 166 160 153 154 157 155 153 153 153 157 167 173 166 155 119 99 87 76 66 59 55 49 48 53 54 54 53 51 47 45 47 53 57 60 65 71 69 72 77 78 79 84 88
183 182 183 187 187 187 185 185 187 187 189 189 188 189 191 193 193 195 196 198 199 200 201 200 197 193 195 199 195 191 189 188 185 186 187 187 186 183 185 184 181 177 172 164 156 156 158 157 155 154 156 161 172 178 170 159 127 104 89 76 64 55 51 47 46 48 48 48 48 46 46 46 46 43 43 47 49 56 60 62 65 66 68 72 76
184 186 187 190 191 189 188 187 188 188 190 190 190 192 193 195 196 198 199 201 202 204 203 200 196 192 196 201 196 189 188 191 192 192 192 191 186 180 184 186 183 180 175 167 159 159 160 159 157 155 158 165 173 179 178 163 118 95 84 69 55 48 47 46 45 45 43 44 43 42 42 43 45 43 42 43 41 45 50 51 52 56 61 63 68
187 189 190 194 194 191 190 188 189 189 190 190 192 194 195 196 198 198 199 201 203 203 200 196 194 195 196 197 193 188 191 196 198 201 197 192 184 178 183 185 183 180 175 170 162 162 164 162 159 157 160 168 173 178 186 180 112 80 72 59 44 39 42 43 42 41 39 38 38 39 39 39 40 40 43 44 43 44 44 44 45 50 56 56 63
190 190 193 196 196 193 191 190 189 189 190 190 192 195 197 198 198 198 198 200 201 199 196 195 196 198 194 191 189 186 191 194 198 205 203 192 184 179 183 184 183 180 175 171 165 164 167 165 161 159 163 170 171 174 185 196 169 89 72 54 35 28 37 41 37 35 32 30 29 31 32 34 34 35 42 46 45 47 46 44 45 49 55 56 61
190 192 194 195 197 195 191 191 190 188 189 188 191 194 197 199 198 198 198 199 202 200 197 197 199 197 192 190 188 185 189 189 190 204 206 193 185 181 182 184 184 181 176 171 167 165 168 168 164 161 166 173 171 170 179 193 205 126 72 46 27 14 22 27 28 26 22 21 22 22 24 29 33 36 43 45 44 47 49 49 51 54 56 58 63
191 193 194 195 198 197 193 192 190 188 187 188 191 193 196 200 199 198 198 201 204 202 198 199 199 196 192 190 190 191 191 187 183 194 205 197 186 183 183 185 186 184 178 172 168 165 167 171 168 166 170 176 174 169 171 184 204 194 27 15 20 8 8 10 12 13 8 11 18 19 19 22 30 38 38 42 48 49 48 50 57 61 59 60 64
191 193 195 197 199 198 196 193 190 190 188 190 191 192 196 200 201 199 199 202 204 204 200 201 201 194 190 193 195 197 192 191 195 195 204 203 188 183 182 184 188 188 183 175 171 166 165 170 173 173 175 178 178 173 172 181 199 208 282 327 350 356 358 357 358 358 357 4 11 14 15 16 23 32 34 42 53 56 52 52 59 63 63 68 73
194 195 196 198 201 200 199 196 195 195 194 194 193 194 197 201 204 202 203 204 204 203 201 202 200 190 191 199 200 204 202 204 209 200 200 198 186 182 181 183 186 189 187 179 174 170 166 168 174 177 178 180 182 180 181 187 196 200 223 279 311 323 335 343 347 347 353 6 7 9 14 17 20 26 34 39 46 53 58 59 60 63 70 77 82
197 199 199 200 202 202 202 201 202 202 200 197 196 198 199 205 207 205 206 206 203 202 203 204 198 191 197 207 208 212 213 213 213 203 191 179 174 177 180 187 189 188 189 184 178 175 171 170 173 176 178 183 186 188 194 199 201 202 212 249 283 299 315 334 338 338 350 6 5 8 16 23 27 29 30 33 37 43 52 62 64 66 81 89 89
201 200 200 202 202 203 205 206 208 207 205 202 201 203 204 208 210 209 209 208 205 202 204 205 198 196 207 212 211 210 209 214 214 205 189 174 169 173 181 192 194 190 190 188 183 179 176 174 174 177 180 187 193 197 205 211 210 210 223 249 269 285 305 326 334 334 346 360 360 4 16 27 33 29 22 23 25 28 33 49 62 72 92 102 105
204 201 200 202 203 206 207 210 212 212 211 208 207 207 208 211 212 213 211 208 207 205 206 205 200 204 212 212 209 205 204 209 211 205 193 183 176 175 180 188 192 190 190 190 186 183 181 178 177 179 184 191 197 202 211 218 217 215 231 255 269 283 300 316 326 333 342 349 350 360 16 24 28 26 15 11 14 19 22 25 43 46 65 97 131
203 201 202 204 206 209 211 215 216 217 216 212 212 213 214 215 213 214 212 209 208 207 207 206 207 211 213 212 210 207 205 205 206 207 200 191 184 178 177 182 188 189 189 191 188 185 185 184 182 183 188 194 198 204 213 219 219 218 227 250 269 284 297 307 314 319 329 331 340 4 26 27 24 21 12 7 9 18 17 16 18 359 359 32 168
202 200 203 207 211 213 214 218 218 222 222 219 220 220 221 220 216 215 213 211 209 208 209 210 214 216 215 215 214 211 207 204 206 209 205 198 191 182 177 177 180 182 184 186 188 188 187 188 188 188 193 199 204 209 213 215 218 220 227 246 268 283 290 296 301 299 297 301 337 30 36 31 22 22 27 20 14 24 31 28 21 5 351 339 329
203 201 202 205 211 214 217 220 222 225 225 225 224 222 223 222 218 219 216 211 210 213 215 216 217 219 221 221 219 216 210 204 205 212 210 203 195 185 179 174 172 174 174 175 180 187 191 192 194 194 198 202 208 213 215 217 220 224 232 249 271 282 279 280 287 275 268 268 168 62 33 17 15 40 64 67 60 60 55 49 40 33 37 27 51
207 205 206 207 210 215 222 227 227 227 226 225 225 223 224 221 215 218 219 213 211 217 220 221 221 221 224 226 223 218 212 206 206 212 211 203 197 188 183 177 172 173 172 171 173 181 189 193 196 197 200 204 209 214 219 221 222 227 235 247 268 277 269 265 268 254 245 229 196 42 30 26 37 59 73 84 82 69 67 62 47 37 41 53 71
212 211 215 217 217 222 230 234 234 234 229 225 225 224 225 221 213 214 218 215 213 219 223 224 225 224 225 226 225 221 215 210 209 211 208 204 197 189 188 185 181 178 172 172 176 179 184 189 193 197 200 205 209 213 218 222 227 235 239 246 261 266 258 249 238 227 223 210 199 139 64 69 72 74 80 94 92 79 74 65 47 33 30 51 72
217 221 226 227 225 229 237 240 239 240 234 230 229 226 224 221 216 216 215 212 213 218 224 227 225 225 226 226 226 226 220 214 212 209 206 207 200 191 191 193 194 191 177 175 180 180 181 183 187 192 197 203 207 213 220 228 236 242 242 243 249 248 241 229 218 211 204 199 197 153 116 102 95 95 101 104 95 87 82 71 50 42 48 71 84
216 219 222 222 221 226 236 239 240 240 237 236 234 227 226 223 220 219 215 212 213 216 221 224 223 224 227 225 226 228 225 219 214 208 206 209 205 196 195 198 204 203 190 184 186 181 179 180 183 192 200 205 211 217 221 227 231 231 229 230 231 228 228 218 206 206 193 184 190 166 137 124 117 119 122 109 93 94 93 92 81 73 80 88 92
205 200 203 208 211 220 231 240 242 240 239 238 235 231 229 228 223 217 213 213 214 213 215 218 221 225 228 227 226 229 228 221 217 210 207 208 207 202 199 201 207 207 200 195 194 188 183 184 191 202 206 208 216 220 219 217 213 211 212 220 223 220 224 215 200 205 197 182 185 186 175 158 142 136 133 120 108 108 110 109 106 100 98 95 94
189 188 192 199 211 224 238 249 249 243 240 239 237 234 230 227 224 218 213 212 211 211 214 218 223 227 229 228 228 230 227 222 220 215 210 209 208 206 202 203 208 207 203 203 205 200 192 195 202 207 205 204 215 220 217 210 198 199 208 216 223 217 211 208 202 206 205 193 188 189 189 181 161 144 137 145 142 137 137 135 126 115 105 98 96
183 184 188 199 215 231 250 257 251 245 247 243 235 234 229 223 221 217 214 213 211 213 218 222 224 227 229 229 230 229 223 220 222 220 217 215 213 209 205 207 212 210 206 206 210 206 197 197 201 205 203 198 204 211 209 205 196 195 205 210 214 207 197 207 211 209 212 206 193 192 196 188 172 157 147 159 166 163 158 159 157 143 127 111 102
183 185 192 207 222 237 251 254 245 236 242 239 232 229 225 221 220 216 211 209 210 214 220 222 224 227 228 228 229 225 220 220 223 223 220 220 218 213 210 211 215 214 210 205 205 204 197 195 198 203 203 197 195 199 200 203 197 191 196 200 201 199 196 212 224 213 215 214 195 193 203 187 175 171 159 158 173 179 176 179 190 190 178 161 126
184 189 201 214 228 239 247 249 239 224 226 232 231 226 221 218 217 213 209 207 209 215 219 221 224 227 227 228 227 223 221 222 225 225 222 220 219 217 214 214 218 216 209 202 202 204 198 194 198 197 200 202 200 198 195 197 198 193 193 192 193 201 203 211 222 214 217 224 205 200 207 186 179 179 166 168 172 178 189 194 203 207 197 187 171
187 192 203 214 227 235 241 246 236 217 213 221 226 222 217 216 214 209 208 209 212 217 220 222 227 228 226 227 226 223 223 225 226 226 224 221 219 220 220 219 220 216 205 200 204 206 201 197 199 197 197 204 207 203 196 196 202 204 199 190 186 197 205 207 211 208 211 215 204 205 208 184 180 184 176 182 183 180 192 198 205 211 209 204 195
190 194 200 212 226 229 237 242 229 212 207 210 216 213 209 212 214 212 212 215 219 222 224 226 229 228 226 226 225 224 225 224 224 225 226 224 220 221 225 223 219 212 203 203 206 206 205 201 202 206 207 206 202 200 199 200 204 205 200 190 181 178 183 207 211 203 203 206 200 203 207 193 188 191 187 187 187 190 201 210 216 217 218 217 212
192 196 196 215 232 226 235 238 223 215 214 216 214 207 203 207 211 215 219 222 224 225 226 229 230 227 226 226 225 223 224 223 221 224 227 228 224 221 225 222 217 211 204 205 207 206 207 206 207 213 218 212 200 194 199 205 205 204 202 190 178 171 167 200 215 204 201 204 202 201 200 198 198 195 194 193 191 194 206 218 219 216 220 227 231
195 197 195 229 238 217 217 223 219 218 227 233 222 210 207 208 212 218 223 226 228 228 228 230 228 226 227 227 224 222 223 221 221 224 229 230 226 222 223 220 218 215 208 208 209 210 212 213 215 217 218 217 207 198 199 201 199 203 213 200 180 185 187 199 210 209 208 206 200 199 194 192 199 203 202 200 197 197 201 207 209 212 227 243 256
200 201 203 230 231 199 192 202 209 208 215 226 222 215 215 216 218 222 226 228 230 231 233 233 230 228 229 227 224 222 222 223 224 226 228 229 226 224 223 220 221 218 211 213 214 213 216 215 219 223 218 217 213 208 204 198 193 195 211 215 207 223 217 207 206 201 207 211 202 196 192 190 198 206 203 199 201 203 200 202 210 223 241 252 262
203 205 213 226 218 195 192 198 204 203 203 210 212 213 217 220 225 230 232 232 233 236 238 238 235 232 229 224 223 223 223 225 227 226 227 229 226 224 222 220 222 218 211 217 220 218 218 215 219 224 219 215 212 214 213 203 197 195 203 213 221 242 254 230 216 203 204 210 203 197 197 195 195 199 200 198 200 202 199 207 220 231 248 253 259
205 209 219 223 204 192 195 200 204 204 204 205 208 209 213 220 227 234 234 233 235 238 239 238 234 232 229 224 224 225 223 225 226 225 225 227 224 223 223 219 219 217 213 219 225 224 222 216 216 217 213 213 212 215 218 212 209 208 207 209 216 231 252 260 236 227 222 205 195 197 197 191 189 195 199 194 191 194 199 208 220 231 245 249 257
209 214 225 226 203 191 193 199 204 205 206 207 209 211 212 216 222 228 230 233 236 239 242 241 236 234 232 227 225 224 223 222 223 224 222 222 222 225 227 221 215 216 216 219 223 224 223 217 213 212 209 208 209 215 220 219 223 224 219 214 214 223 240 249 230 229 237 214 200 201 193 184 184 190 191 185 185 194 200 197 201 220 232 236 253
211 214 225 229 211 198 198 204 207 208 211 212 212 215 216 216 219 223 227 231 235 239 243 243 239 236 234 229 224 222 222 220 219 221 220 219 222 224 222 217 215 216 216 218 223 221 218 212 209 213 213 206 206 213 217 220 227 231 227 222 219 222 230 234 220 217 226 225 221 211 197 188 182 182 183 185 194 199 196 193 195 198 202 219 244
201 205 227 236 227 216 210 214 215 217 221 221 219 220 221 222 222 223 225 229 234 239 244 246 243 238 235 232 224 219 218 217 216 217 217 217 217 217 214 212 213 215 215 217 220 218 212 208 207 212 215 208 208 215 217 216 222 229 230 227 228 231 238 246 236 224 222 222 226 214 198 191 182 182 188 193 198 193 185 189 190 183 182 202 228